Simultaneous Nadir Overpasses (SNOs) Predictions

Prediction of SNOs between LANDSAT-8 and METOP-A Satellite Orbit:

Table of predicted SNOs for the next 14.0 days since TLE Epoch: 5/25/2019
Index Date (LANDSAT-8) Time (LANDSAT-8) Lat,Lon (LANDSAT-8) SZA (LANDSAT-8 ) Date (METOP-A) Time (METOP-A) Lat,Lon (METOP-A) SZA (METOP-A ) Distance(km) Time Diff (sec)
1 05/25/2019 08:01:41 81.47, 106.03 63.41 05/25/2019 08:01:37 81.47, 106.18 63.42 2.52 4
2 05/25/2019 08:51:08 -81.47, -86.37 116.61 05/25/2019 08:52:18 -81.47, -86.55 116.60 3.00 70
3 05/28/2019 02:46:32 -81.46, 4.66 117.10 05/28/2019 02:45:22 -81.47, 4.63 117.14 0.67 70
4 05/28/2019 03:35:58 81.47, 172.35 62.90 05/28/2019 03:36:02 81.47, 172.25 62.90 1.64 4
5 05/30/2019 22:20:49 -81.46, 70.98 117.56 05/30/2019 22:19:46 -81.47, 71.12 117.57 2.45 63
6 05/30/2019 23:10:15 81.46,-121.35 62.44 05/30/2019 23:10:26 81.47,-121.27 62.46 1.62 11
7 06/02/2019 17:55:04 -81.47, 137.66 117.92 06/02/2019 17:54:09 -81.47, 137.60 117.95 1.01 55
8 06/02/2019 18:44:30 81.47, -54.69 62.08 06/02/2019 18:44:49 81.47, -54.79 62.08 1.74 19
9 06/05/2019 13:29:21 -81.46,-156.08 118.29 06/05/2019 13:28:33 -81.47,-155.91 118.29 2.85 48




NCC Satellite Simultaneous Nadir Overpasses (SNOs) Prediction Service
